This is the latest recevied weather packets stored in our database for station/object KB3HLL. If no packets are shown the sender has not sent any weather packets the latest 1 day(s).
| Time | Temp. | Humidity | Pressure | Rain* | Wind** | Luminosity | Snow |
|---|---|---|---|---|---|---|---|
| 1778007979 | 23.33° C | 47% | 1009.8 hPa | 0 mm | 2.68 m/s, 196° | 918 W/m² | - |
| 1778007679 | 22.78° C | 47% | 1009.5 hPa | 0 mm | 3.13 m/s, 210° | 931 W/m² | - |
| 1778007381 | 22.78° C | 48% | 1009.5 hPa | 0 mm | 3.13 m/s, 189° | 477 W/m² | - |
| 1778007080 | 22.78° C | 49% | 1009.8 hPa | 0 mm | 3.13 m/s, 194° | 836 W/m² | - |
| 1778006780 | 22.78° C | 48% | 1009.8 hPa | 0 mm | 1.79 m/s, 227° | 225 W/m² | - |
| 1778006480 | 22.78° C | 50% | 1009.9 hPa | 0 mm | 3.13 m/s, 210° | 233 W/m² | - |
| 1778006181 | 22.78° C | 50% | 1009.9 hPa | 0 mm | 2.24 m/s, 200° | 294 W/m² | - |
| 1778005880 | 22.78° C | 51% | 1010 hPa | 0 mm | 1.34 m/s, 206° | 476 W/m² | - |
| 1778005580 | 22.22° C | 51% | 1010 hPa | 0 mm | 1.79 m/s, 235° | 342 W/m² | - |
| 1778005277 | 22.22° C | 53% | 1010.1 hPa | 0 mm | 2.24 m/s, 203° | 397 W/m² | - |
| 1778004980 | 22.22° C | 53% | 1010 hPa | 0 mm | 2.24 m/s, 185° | 293 W/m² | - |
| 1778004682 | 22.78° C | 53% | 1010.2 hPa | 0 mm | 3.13 m/s, 216° | 314 W/m² | - |
| 1778004381 | 22.78° C | 54% | 1010.3 hPa | 0 mm | 2.68 m/s, 202° | 283 W/m² | - |
| 1778004080 | 22.78° C | 54% | 1010.3 hPa | 0 mm | 2.24 m/s, 201° | 941 W/m² | - |
| 1778003780 | 23.33° C | 53% | 1010.1 hPa | 0 mm | 2.24 m/s, 197° | 1060 W/m² | - |
| 1778003197 | 22.78° C | 53% | 1010.3 hPa | 0 mm | 1.79 m/s, 201° | 729 W/m² | - |
| 1778002880 | 22.78° C | 54% | 1010.4 hPa | 0 mm | 2.24 m/s, 204° | 968 W/m² | - |
| 1778002579 | 22.78° C | 54% | 1010.5 hPa | 0 mm | 2.24 m/s, 198° | 1070 W/m² | - |
| 1778002279 | 22.78° C | 54% | 1010.7 hPa | 0 mm | 2.24 m/s, 191° | 1119 W/m² | - |
| 1778001980 | 22.78° C | 54% | 1010.5 hPa | 0 mm | 1.79 m/s, 202° | 902 W/m² | - |
| 1778001680 | 22.78° C | 55% | 1010.5 hPa | 0 mm | 1.79 m/s, 248° | 569 W/m² | - |
| 1778001380 | 23.33° C | 54% | 1010.6 hPa | 0 mm | 1.79 m/s, 223° | 718 W/m² | - |
| 1778001080 | 22.78° C | 54% | 1010.6 hPa | 0 mm | 0.89 m/s, 236° | 970 W/m² | - |
| 1778000780 | 22.22° C | 55% | 1010.7 hPa | 0 mm | 1.34 m/s, 220° | 804 W/m² | - |
| 1778000480 | 21.67° C | 57% | 1010.7 hPa | 0 mm | 0.89 m/s, 270° | 876 W/m² | - |
* Rain latest hour (hover to see other rain measurements)
** Current wind speed in m/s (hover to see current wind gust speed)